Location: Oriwa
(40.7500°S, 175.3333°E)
Time: 12:13:31
(UTC+00:00)

CZ-2D R/B - Pass Details

Date: 03 February 2023
Orbit: 548 x 629 km, 98.0° (Epoch: 30 March)

Event Time Altitude Azimuth Distance (km) Brightness Sun altitude
Exits shadow 16:00:53 - 5° (N) 2,191 6.1 -15.1°
Reaches altitude 10° 16:01:20 10° 4° (N) 2,010 5.9 -15.1°
Maximum altitude 16:05:42 66° 282° (WNW) 703 3.6 -14.4°
Drops below altitude 10° 16:10:09 10° 199° (SSW) 2,048 6.5 -13.8°
Sets 16:12:24 0° 195° (SSW) 2,961 7.3 -13.4°
